Regional Weather Roundup
Issued by NWS

Home | Current Version | Previous Version | Text Only | Print | Product List | Glossary On
Versions: 1 2 3 4 5 6 7 8 9 10 11 12 13 14 15 16 17 18 19 20 21 22 23 24 25 26 27 28 29 30 31 32 33 34 35 36 37 38 39 40 41 42 43 44 45 46 47 48 49 50
000
ASUS44 KOUN 101610
RWROK

WEATHER ROUNDUP FOR OKLAHOMA
NATIONAL WEATHER SERVICE NORMAN OK
1000 AM CST WED FEB 10 2016

NOTE: "FAIR" INDICATES FEW OR NO CLOUDS BELOW 12,000 FEET WITH NO
      SIGNIFICANT WEATHER AND/OR OBSTRUCTIONS TO VISIBILITY.

OKZ001>007-009>012-014-015-017-101700-
NORTHWEST OKLAHOMA AND THE PANHANDLE

CITY           SKY/WX    TMP DP  RH WIND       PRES   REMARKS
GAGE           SUNNY     54  30  40 NW8       30.14F
GUYMON         SUNNY     53  20  27 W9        30.14S
ENID/WOODRING  SUNNY     43  30  61 SW17      30.14F
$$

OKZ016-021>023-033>039-044-045-101700-
SOUTHWEST OKLAHOMA

CITY           SKY/WX    TMP DP  RH WIND       PRES   REMARKS
LAWTON/REGL    SUNNY     46  27  47 SW13      30.26F
LAWTON/FT SILL SUNNY     47  26  43 SW14G22   30.24F
FREDERICK      SUNNY     44  30  57 SW9       30.23F
CLINTON        SUNNY     44  29  55 SW17      30.20F
HOBART         SUNNY     44  29  55 SW16      30.23F
ALTUS AFB      SUNNY     43  27  52 S6        30.24F
$$

OKZ018>020-024>031-101700-
CENTRAL OKLAHOMA

CITY           SKY/WX    TMP DP  RH WIND       PRES   REMARKS
OKLAHOMA CITY  SUNNY     46  23  40 SW21      30.21F
OKC/WILEY POST SUNNY     45  24  43 SW28      30.20F
OKC/TINKER AFB SUNNY     46  22  39 S22       30.19F
STILLWATER     SUNNY     41  22  46 S10G23    30.18F
GUTHRIE        SUNNY     48  24  39 SW12G20   30.18F
$$

OKZ008-013-054>072-101700-
NORTHEAST OKLAHOMA

CITY           SKY/WX    TMP DP  RH WIND       PRES   REMARKS
TULSA          MOSUNNY   34  13  41 S17       30.23F WCI  23
TULSA/JONES    SUNNY     35  11  36 S13       30.24F WCI  26
PONCA CITY     SUNNY     38  20  48 S10G18    30.16F WCI  31
BARTLESVILLE   SUNNY     35  11  36 S17G24    30.20F WCI  25
MUSKOGEE       SUNNY     35  13  40 S14       30.29F WCI  26
$$

OKZ032-040>043-046>053-073>077-101700-
SOUTH CENTRAL/SOUTHEAST OKLAHOMA

CITY           SKY/WX    TMP DP  RH WIND       PRES   REMARKS
ARDMORE/DWNTWN   N/A     45  23  42 SW7       30.29F
MCALESTER      SUNNY     39  15  37 S12G17    30.28F WCI  32
$$




USA.gov is the U.S. government's official web portal to all federal, state and local government web resources and services.